{"data":{"norad_id":46141,"epoch":"2026-05-24T17:18:52.478208Z","epoch_age_seconds":95556,"freshness":"FRESH","line1":"1 46141U 20057AA  26144.72144072  .00067243  00000+0  91914-3 0  9992","line2":"2 46141  53.0351 225.3370 0006101 344.2287  15.8533 15.56827575319071","mean_motion":15.56827575,"eccentricity":0.0006101,"inclination_deg":53.0351,"raan_deg":225.337,"arg_perigee_deg":344.2287,"mean_anomaly_deg":15.8533,"bstar":0.00091914,"rev_number":31907,"period_min":92.495792284512,"perigee_km":392.71187541129,"apogee_km":400.97870880412,"semimajor_km":6774.9822921077,"source":"CELESTRAK","updated_at":"2026-05-25T13:38:16.466720Z"}}